Regional Weather Roundup
Issued by NWS Upton, NY

Current Version | Previous Version | Graphics & Text | Print | Product List | Glossary Off
Versions: 1 2 3 4 5 6 7 8 9 10 11 12 13 14 15 16 17 18 19 20 21 22 23 24 25 26 27 28 29 30 31 32 33 34 35 36 37 38 39 40 41 42 43 44 45 46 47 48 49 50

000
ASUS41 KOKX 221605
RWROKX
REGIONAL WEATHER ROUNDUP
NATIONAL WEATHER SERVICE NEW YORK NY
1200 PM EDT FRI AUG 22 2014

NOTE: "FAIR" INDICATES FEW OR NO CLOUDS BELOW 12,000 FEET WITH NO
SIGNIFICANT WEATHER AND/OR OBSTRUCTIONS TO VISIBILITY.

NYZ071-072-176-178-NJZ106-104-221700-
NEW YORK CITY METRO AREA


CITY           SKY/WX    TMP DP  RH WIND       PRES   REMARKS
CENTRAL PARK   CLOUDY    74  61  63 NE7       30.07F
LAGUARDIA APRT CLOUDY    74  59  59 NE12      30.04F
KENNEDY INTL   PTSUNNY   75  60  59 SE13      30.05F
NEWARK/LIBERTY CLOUDY    73  62  68 SE6       30.04F
BRNX BOT. GARD   N/A     72  59  64 N5        30.07R
TETERBORO      CLOUDY    73  57  57 E5        30.03F
$$

NYZ177-179-078>081-221700-
LONG ISLAND NEW YORK

CITY           SKY/WX    TMP DP  RH WIND       PRES   REMARKS
FARMINGDALE    MOSUNNY   74  61  63 SE12      30.05F
ISLIP          PTSUNNY   76  60  57 E8        30.03F
SHIRLEY        PTSUNNY   73  63  70 SE8       30.06F
WESTHAMPTON    CLOUDY    74  61  63 SE10      30.07S
MONTAUK POINT    N/A     69  63  81 E5        30.09R
$$

NYZ052-065-067-221700-
HUDSON VALLEY

CITY           SKY/WX    TMP DP  RH WIND       PRES   REMARKS
WHITE PLAINS   PTSUNNY   69  61  75 E6        30.06F
NEWBURGH       PTSUNNY   70  64  83 VRB6      30.08S
MONTGOMERY     CLOUDY    69  63  81 CALM      30.06S
POUGHKEEPSIE   CLOUDY    70  59  68 VRB3      30.05F
ALBANY         CLOUDY    66  61  84 SE8       30.07S
$$

NJZ001-105-106-008-010-013-015-019>022-104-221700-
NEW JERSEY

CITY           SKY/WX    TMP DP  RH WIND       PRES   REMARKS
NEWARK/LIBERTY CLOUDY    73  62  68 SE6       30.04F
TETERBORO      CLOUDY    73  57  57 E5        30.03F
CALDWELL       CLOUDY    70  60  70 E9        30.05F
MORRISTOWN     CLOUDY    72  68  88 SE6       30.05F
SOMERVILLE     CLOUDY    73  66  78 VRB5      30.02F
LINDEN         CLOUDY    76  64  65 SE8       30.06F
SUSSEX         CLOUDY    71  64  78 CALM      30.06S
ANDOVER          N/A     68  64  87 CALM      30.06S
TRENTON        CLOUDY    73  65  75 E8        30.02F
MILLVILLE      CLOUDY    76  68  76 NE14      30.00F
ATLANTIC CITY  CLOUDY    73  68  84 E10       30.01F
WRIGHTSTOWN    CLOUDY    71  66  85 E9        30.01S
TOMS RIVER     CLOUDY    72  63  73 E6        30.04S
BELMAR         CLOUDY    72  61  68 E9        30.04F
$$

PAZ047>061-062-071-221700-
EASTERN PENNSYLVANIA

CITY           SKY/WX    TMP DP  RH WIND       PRES   REMARKS
PHILADELPHIA   CLOUDY    75  67  76 E9        30.02F
ALLENTOWN      CLOUDY    72  64  78 E3        30.04F
SCRANTON       CLOUDY    74  64  71 VRB3      30.03F
$$

CTZ002-004>006-009-010-012-RIZ004-006-007-MAZ004-011-015-221700-
SOUTHERN NEW ENGLAND
 IN CT

CITY           SKY/WX    TMP DP  RH WIND       PRES   REMARKS
BRADLEY INTL   CLOUDY    68  61  78 N8        30.08F
HARTFORD       CLOUDY    69  60  73 N7        30.08S
DANBURY        PTSUNNY   70  59  68 E8        30.08F
WTRBRY/OXFORD  CLOUDY    70  57  64 S7        30.10S
BRIDGEPORT     CLOUDY    71  62  73 E9        30.07F
MERIDEN        CLOUDY    71  60  68 N5        30.08S
NEW HAVEN      CLOUDY    72  60  66 E3        30.07F
CHESTER        CLOUDY    70  61  73 NE3       30.09S
GROTON         CLOUDY    70  62  76 E10       30.06S
WILLIMANTIC    NOT AVBL

 IN RI

CITY           SKY/WX    TMP DP  RH WIND       PRES   REMARKS
PROVIDENCE     CLOUDY    71  62  73 NE9       30.08S
BLOCK ISLAND   CLOUDY    66  61  82 E7        30.08R
WESTERLY       CLOUDY    72  59  63 E7        30.08R

 IN MA

CITY           SKY/WX    TMP DP  RH WIND       PRES   REMARKS
BOSTON         CLOUDY    71  65  81 E13       30.10R
WORCESTER      CLOUDY    64  60  87 NE7       30.12R
WESTFIELD      CLOUDY    65  60  84 N7        30.10S
PROVINCETOWN   PTSUNNY   70  63  78 MISG      30.09R
NANTUCKET      PTSUNNY   69  60  73 E13       30.06S
$$

ANZ330-335-338-340-345-350-353-355-221700-
COASTAL MARINE OBSERVATIONS


STATION/POSITION TIME  SKY/WX   TEMP    WIND        PRES    VSBY  WAVE
                                AIR SEA DIR/SP/G                  HT/PER
                 (UTC)          (F)     (DEG/KT/KT) (MB)    (MI)  (FT/S)
NY HARB ENTRANCE NOT AVBL
4S FIRE IS       NOT AVBL
23SW MTP         1600            70 70              1017.5          4/ 7
HUDSON CANYON    1600            72 72   70/ 12/ 12   N/A           3/ 7
EXECUTION ROCKS  1600            71 73   50/ 14/ 17   N/A
WESTERN LI SOUND 1600            70      70/ 12/ 16   N/A           2/ 4
CENTRAL LI SOUND 1500            68 72   70/ 10/ 12   N/A           2/ 3
EASTERN LI SOUND 1500            70 68  110/ 12/ 14   N/A
ROBBINS REEF     1600            71     140/  9/ 11   N/A
$$


>>>>>>>>>>>>>>>>>>>>>>>>>>>> KEY <<<<<<<<<<<<<<<<<<<<<<<<<<<
>                                                          <
>     SKY/WX - SKY CONDITION/PRESENT WEATHER               <
>     TMP    - TEMPERATURE IN FAHRENHEIT                   <
>     DP     - DEWPOINT IN FAHRENHEIT                      <
>     RH     - RELATIVE HUMIDITY IN PERCENT                <
>     WIND   - DIRECTION AND SPEED IN MPH                  <
>     PRES   - MEAN SEA LEVEL PRESSURE IN INCHES OF HG     <
>     WCI    - WIND CHILL INDEX                            <
>     VSB    - VISIBILITY IN MILES                         <
>     HX     - HEAT INDEX                                  <
>     TC     - TEMPERATURE IN CELSIUS                      <
>     VRB    - VARIABLE WIND DIRECTION                     <
>                                                          <
>>>>>>>>>>>>>>>>>>>>>>>>>>>> KEY <<<<<<<<<<<<<<<<<<<<<<<<<<<





USA.gov is the U.S. government's official web portal to all federal, state and local government web resources and services.